CST,Max TemperatureF,Mean TemperatureF,Min TemperatureF,Max Dew PointF,MeanDew PointF,Min DewpointF,Max Humidity, Mean Humidity, Min Humidity, Max Sea Level PressureIn, Mean Sea Level PressureIn, Min Sea Level PressureIn, Max VisibilityMiles, Mean VisibilityMiles, Min VisibilityMiles, Max Wind SpeedMPH, Mean Wind SpeedMPH, Max Gust SpeedMPH,PrecipitationIn, CloudCover, Events, WindDirDegrees
2012-12-1,68,58,47,50,44,40,81,63,38,30.28,30.21,30.15,10,10,10,13,7,,0.00,3,,173
2012-12-2,66,62,58,61,57,50,89,78,69,30.18,30.16,30.12,10,10,10,24,13,37,0.00,7,,201
2012-12-3,74,67,60,59,53,47,84,64,40,30.19,30.14,30.09,10,10,10,20,11,26,0.00,3,,192
2012-12-4,69,60,49,65,59,45,100,93,66,30.26,30.13,30.05,10,8,0,18,10,25,0.54,8,Fog-Rain-Thunderstorm,209
2012-12-5,59,49,39,46,39,34,100,72,39,30.35,30.26,30.16,10,10,5,12,4,,0.00,1,,47
2012-12-6,57,48,39,53,45,34,100,88,63,30.14,30.07,29.98,10,9,2,8,5,,0.08,7,Rain,108
2012-12-7,61,56,51,61,57,52,100,98,88,29.97,29.92,29.87,10,9,4,15,6,23,0.03,7,,189
2012-12-8,61,57,53,61,58,53,100,100,98,29.98,29.92,29.88,10,6,1,14,6,,0.43,8,Rain,291
2012-12-9,64,58,53,64,59,54,100,100,99,29.95,29.84,29.76,10,7,1,18,7,24,1.36,7,Rain-Thunderstorm,188
2012-12-10,59,45,31,59,42,24,100,95,74,30.07,29.84,29.73,10,9,4,15,6,23,0.15,8,Rain,315
2012-12-11,39,34,29,28,24,20,86,67,53,30.28,30.18,30.08,10,10,10,7,2,,0.00,3,,7
2012-12-12,51,38,24,32,24,14,93,65,29,30.40,30.31,30.21,10,9,5,7,2,,0.00,0,,67
2012-12-13,59,41,23,30,24,12,100,61,23,30.42,30.32,30.25,10,9,5,4,1,,0.00,0,,124
2012-12-14,57,42,28,37,29,18,80,55,33,30.32,30.22,30.12,10,10,10,10,3,,0.02,1,,160
2012-12-15,61,52,44,59,48,38,100,87,68,30.10,29.96,29.83,10,10,6,14,8,23,0.12,8,Rain,160
2012-12-16,63,60,57,61,57,54,100,91,72,29.82,29.76,29.69,10,10,10,15,11,22,0.00,5,,201
2012-12-17,63,54,44,59,52,41,100,91,54,29.81,29.70,29.59,10,10,6,22,8,26,0.07,7,Rain-Thunderstorm,207
2012-12-18,57,48,38,41,36,29,96,66,33,29.93,29.88,29.81,10,10,10,14,8,,0.00,2,,212
2012-12-19,64,50,37,50,43,37,99,72,52,30.03,29.94,29.77,10,10,10,16,5,23,0.00,0,,134
2012-12-20,60,47,33,57,44,20,100,83,50,29.94,29.60,29.49,10,8,2,41,20,51,1.58,8,Rain,204
2012-12-21,40,34,29,20,16,11,63,49,36,30.29,30.14,29.96,10,10,10,23,16,32,0.00,0,,281
2012-12-22,48,35,22,24,15,11,69,45,27,30.37,30.25,30.09,10,10,10,8,4,,0.00,0,,207
2012-12-23,57,48,40,49,41,25,100,77,49,30.08,29.96,29.86,10,8,3,14,10,,0.00,5,,184
2012-12-24,53,43,33,54,48,32,100,99,87,30.06,29.86,29.78,10,6,1,13,4,22,0.03,8,,305
2012-12-25,37,34,32,36,33,28,100,91,73,30.13,29.89,29.58,10,8,4,30,15,36,0.29,8,Rain,44
2012-12-26,36,34,32,36,33,29,100,98,86,30.13,29.66,29.47,10,7,1,24,17,33,0.70,8,Rain-Snow,329
2012-12-27,33,32,30,29,28,26,93,85,74,30.23,30.17,30.12,10,10,10,10,6,,0.00,8,,12
2012-12-28,39,36,32,37,35,29,100,96,77,30.11,29.88,29.78,10,7,3,13,6,,0.24,8,Rain,90
2012-12-29,37,32,24,37,31,19,100,91,69,30.40,30.04,29.79,10,10,5,17,12,28,0.00,8,Rain-Snow,297
2012-12-30,40,30,20,26,23,20,99,76,52,30.56,30.45,30.37,10,10,10,7,3,,0.00,0,,184
2012-12-31,41,36,31,37,32,25,100,83,57,30.35,30.17,30.05,10,8,2,8,5,,0.18,7,Rain,133